Regional Weather Roundup
Issued by NWS State College, PA

Home | Current Version | Previous Version | Text Only | Print | Product List | Glossary On
Versions: 1 2 3 4 5 6 7 8 9 10 11 12 13 14 15 16 17 18 19 20 21 22 23 24 25 26 27 28 29 30 31 32 33 34 35 36 37 38 39 40 41 42 43 44 45 46 47 48 49 50
000
ASUS41 KCTP 250010
RWRCTP

REGIONAL WEATHER ROUNDUP
NATIONAL WEATHER SERVICE STATE COLLEGE PA
800 PM EDT FRI MAR 24 2017

Note: "fair" indicates few or no clouds below 12,000 feet with no
significant weather and/or obstructions to visibility.

* = STATION THAT DOES NOT REPORT PRECIPITATION /E.G. RAIN...SNOW...ETC/
    THUNDER OR FOG.

PAZ002>004-007>009-013>016-020>023-029>032-250100-
WESTERN PENNSYLVANIA

CITY           SKY/WX    TMP DP  RH WIND       PRES   REMARKS
ERIE           CLOUDY    64  49  57 SW5       30.00R
MEADVILLE      PTCLDY    66  48  52 SW7       30.04R
FRANKLIN*      CLEAR     64  48  55 W9G17     30.07R
NEW CASTLE     FAIR      66  52  60 SW8       30.07R
BEAVER COUNTY  CLEAR     70  52  52 W12G22    30.06R
BUTLER*        CLEAR     68  48  49 SW12G21   30.08R
PITTSBURGH INT PTCLDY    70  51  51 SW10      30.08R
PITTSBURGH     CLEAR     69  48  47 SW14      30.08R
INDIANA*       CLEAR     66  50  55 W13       30.09S
LATROBE        CLEAR     68  50  52 W17       30.09R
WASHINGTON CO* CLEAR     70  48  46 SW13G20   30.12R
$$

PAZ004>006-010>012-017>019-024>028-033>037-041-042-045-046-049>053-250100-
CENTRAL PENNSYLVANIA

CITY           SKY/WX    TMP DP  RH WIND       PRES   REMARKS
BRADFORD       CLOUDY    64  49  57 W5        30.04R
DUBOIS         CLEAR     63  46  54 SW8       30.04R
CLEARFIELD       N/A    N/A N/A N/A MISG      30.04R
JOHNSTOWN      PTCLDY    65  48  54 SW10      30.10R
ALTOONA        CLEAR     67  49  52 SW13      30.08R
STATE COLLEGE  CLEAR     57  43  58 CALM      30.05R
WILLIAMSPORT   NOT AVBL
SELINSGROVE    CLOUDY    52  40  63 S7        30.08F
FT INDIANTOWN  CLOUDY    53  41  62 W3        30.11F
CAPITAL CITY   CLOUDY    57  37  47 S6        30.12S
HARRISBURG     MOCLDY    56  39  53 S8        30.12S
YORK           CLOUDY    56  39  53 SW6       30.13S
$$

PAZ038>040-043-044-047-048-054-055-060>062-067>071-250100-
EASTERN PENNSYLVANIA

CITY           SKY/WX    TMP DP  RH WIND       PRES   REMARKS
SCRANTON       CLOUDY    45  36  70 S3        30.09R
MOUNT POCONO   CLOUDY    41  35  79 W3        30.09R
ALLENTOWN      CLOUDY    52  35  52 S12       30.11F
QUAKERTOWN*    CLOUDY    48  32  53 SW9       30.13F
READING        CLOUDY    51  36  56 S6        30.12S
LANCASTER      PTCLDY    52  37  56 S7        30.13S
COATESVILLE    CLOUDY    48  32  53 VRB5      30.15F
POTTSTOWN      CLOUDY    49  31  49 SW3       30.15F
BLUE BELL      CLEAR     48  34  57 CALM      30.14F
DOYLESTOWN     CLEAR    N/A N/A N/A SW9       30.12F
WILLOW GROVE   NOT AVBL
NORTH PHILA    CLOUDY    55  32  41 SW10      30.15F
PHILADELPHIA   MOCLDY    54  32  43 S10       30.16F
$$



USA.gov is the U.S. government's official web portal to all federal, state and local government web resources and services.